Back to catalog

FENGYUN 1C DEB

AliveSSO
NORAD 31199·DEBRIS·🇨🇳 China

Launched May 10, 1999 from Taiyuan Satellite Launch Center

Loading…

Next Passes (next 24 hours)

TLE

FreshSource: Space-Track

Epoch: Sep 13, 2026, 04:08 UTC

1 31199U 99025BKD 26256.17225786  .00000236  00000-0  15465-3 0  9992
2 31199  98.7421 235.8732 0063364 201.2190 218.9254 14.10157837   225

Track FENGYUN 1C DEB in real time with AllMySat

Download on the App Store